Regional Weather Roundup
Issued by NWS Raleigh/Durham, NC

Home | Current Version | Previous Version | Text Only | Print | Product List | Glossary On
Versions: 1 2 3 4 5 6 7 8 9 10 11 12 13 14 15 16 17 18 19 20 21 22 23 24 25 26 27 28 29 30 31 32 33 34 35 36 37 38 39 40 41 42 43 44 45 46 47 48 49 50
000
ASUS42 KRAH 150210
RWRRAH
NORTH CAROLINA WEATHER ROUNDUP
NATIONAL WEATHER SERVICE RALEIGH NC
1000 PM EDT SUN SEP 14 2014

NOTE: "FAIR" INDICATES FEW OR NO CLOUDS BELOW 12,000 FEET WITH NO
SIGNIFICANT WEATHER AND/OR OBSTRUCTIONS TO VISIBILITY.

NCZ001-053-055-056-065-067-150300-
WESTERN NORTH CAROLINA

CITY           SKY/WX    TMP DP  RH WIND       PRES   REMARKS
ASHEVILLE      CLOUDY    62  59  90 S6        30.28R
JEFFERSON      FOG       56  55  97 CALM      30.29S VSB 1
HICKORY        CLOUDY    65  60  84 CALM      30.25S
RUTHERFORDTON  CLOUDY    65  62  93 W7        30.26S
MOUNT AIRY     CLOUDY    64  58  82 CALM      30.27S
BOONE          CLOUDY    56  56 100 CALM      30.30S FOG
$$

NCZ021-022-025-041-071-084-088-150300-
CENTRAL NORTH CAROLINA

CITY           SKY/WX    TMP DP  RH WIND       PRES   REMARKS
CHARLOTTE      CLOUDY    68  59  73 SE3       30.24S
GREENSBORO     MOCLDY    64  57  78 CALM      30.24S
WINSTON-SALEM  CLOUDY    64  56  75 CALM      30.26S
RALEIGH-DURHAM CLOUDY    64  59  83 NE5       30.25R
FORT BRAGG     CLOUDY    69  63  83 E6        30.22S
FAYETTEVILLE   CLOUDY    70  64  81 NE5       30.22S
BURLINGTON     CLOUDY    64  56  75 NE3       30.25R
LAURINBURG     CLOUDY    69  65  86 CALM      30.23S
$$

NCZ011-015-027-028-043-044-047-080-103-150300-
NORTHEASTERN NORTH CAROLINA

CITY           SKY/WX    TMP DP  RH WIND       PRES   REMARKS
ROCKY MT-WILSO CLOUDY    64  60  87 N7        30.24R
GREENVILLE     CLOUDY    68  64  88 N5        30.22S
WASHINGTON     CLOUDY    67  61  80 E3        30.22R
ELIZABETH CITY CLOUDY    67  59  75 NE7       30.22R
MANTEO         MOCLDY    67  57  71 NE9       30.21R
CAPE HATTERAS  MOCLDY    68  64  87 VRB7      30.18F
$$

NCZ078-087-090-091-093-098-101-150300-
SOUTHEASTERN NORTH CAROLINA

CITY           SKY/WX    TMP DP  RH WIND       PRES   REMARKS
LUMBERTON      CLOUDY    67  64  90 NE3       30.22S FOG
GOLDSBORO      CLOUDY    69  68  95 CALM      30.20S
KINSTON        CLOUDY    70  64  83 CALM      30.22S
KENANSVILLE    CLOUDY    69  66  90 CALM      30.22S
NEW BERN       CLOUDY    72  64  76 CALM      30.21S
CHERRY POINT   PTCLDY    71  63  75 NE8       30.21R
BEAUFORT       MOCLDY    71  65  81 NE5       30.19S
JACKSONVILLE   CLOUDY    72  66  81 MISG      30.19F
WILMINGTON     CLOUDY    70  67  90 N3        30.19F
$$




USA.gov is the U.S. government's official web portal to all federal, state and local government web resources and services.